PRAETORIAN SDA_618

Last updated on Sat Oct 11 2025 00:02:06 GMT+0000 (Coordinated Universal Time)

1 65581U 25203S 25283.39215769 .00000076 00000+0 56548-4 0 9993 2 65581 81.3005 242.1475 0010455 144.3253 215.8605 13.85314877 4138
UTC large
Height (km)
Speed (km/s)
/
Latitude / Longitude
Inclination (degrees)
Orbital Period (minutes)
Azimuth
Elevation
Range (km)
Doppler Factor

Next 0 passes for location: London (51.5072 / 0.1276)

Sorry there are no passes over London.
PRAETORIAN SDA_618